[[{"header":{"parameterUnit":"m.s-1","parameterCategory":1,"la1":30.2991,"la2":30.254,"lo1":-89.0895,"lo2":-89.0444,"dy":0.0017,"dx":0.0017,"nx":28,"ny":28,"refTime":"2024-03-06T09:00:00:Z","depth":0,"parameterNumber":2,"parameterNumberName":"U-component_of_WINDS"},"data":[0,0,0,0,0,0,0,0,0,0,0,0,0,0,0,0,0,0,0,0,0,0,0,0,0,0,0,0,0,0,0,0,0,0,0,0,0,0,0,0,0,0,0,0,0,0,0,0,0,0,0,0,0,0,0,0,0,0,-2.2669,-2.2669,0,-2.2731,-2.2732,-2.2732,-2.269,-2.2688,-2.2686,-2.2684,-2.275,-2.2754,-2.2757,0,0,0,0,0,0,0,0,0,0,0,0,0,-2.2515,-2.2518,-2.2669,-2.2669,-2.267,-2.2731,-2.2732,-2.2733,-2.269,-2.2688,-2.2686,-2.2683,-2.2749,-2.2753,-2.2757,0,0,0,0,0,0,0,0,0,0,0,0,0,-2.258,-2.2519,-2.2669,-2.2656,-2.2656,-2.2731,-2.2732,-2.2733,-2.2691,-2.2688,-2.2685,-2.2682,-2.2748,-2.2753,-2.2758,-2.2849,0,0,-2.2774,-2.2776,0,0,0,0,0,0,0,0,-2.2576,-2.2586,-2.2657,-2.2657,-2.2657,-2.27,-2.2701,-2.2772,-2.2692,-2.2678,-2.2684,-2.2681,-2.2736,-2.2742,-2.276,-2.2852,-2.2854,-2.2775,-2.2778,-2.278,-2.2782,0,0,0,0,0,0,0,-2.2572,-2.2583,-2.2693,-2.2659,-2.2658,-2.2648,-2.2654,-2.2715,-2.2722,-2.2679,-2.2676,-2.2684,-2.2735,-2.2755,-2.2761,-2.2855,-2.2775,-2.2779,-2.2783,-2.2785,-2.3024,-2.3027,0,0,0,0,0,0,-2.2568,-2.2579,-2.2691,-2.2695,-2.2609,-2.2653,-2.266,-2.2689,-2.2721,-2.2724,-2.2686,-2.2681,-2.2747,-2.2755,-2.2763,-2.2872,-2.278,-2.2785,-2.2788,-2.3021,-2.3025,-2.3029,0,0,0,0,0,0,-2.2565,-2.2578,-2.2689,-2.2636,-2.265,-2.2659,-2.2692,-2.2692,-2.2711,-2.2727,-2.2728,-2.2705,-2.2745,-2.2756,-2.2828,-2.2874,-2.2788,-2.2792,-2.3018,-2.3022,-2.3027,-2.309,0,0,0,0,0,0,-2.2561,-2.2578,-2.2612,-2.2637,-2.2653,-2.2752,-2.2695,-2.2695,-2.272,-2.2715,-2.2745,-2.2747,-2.2744,-2.282,-2.2833,-2.2879,-2.2797,-2.3014,-2.302,-2.3025,-2.3083,-2.3096,-2.3106,0,0,0,0,0,-2.2555,-2.2628,-2.2614,-2.2628,-2.2696,-2.2755,-2.2763,-2.2758,-2.2724,-2.2759,-2.2769,-2.2746,-2.2866,-2.2828,-2.2842,-2.2891,-2.3011,-2.3018,-2.3025,-2.3078,-2.3093,-2.3106,0,0,0,0,0,0,-2.2608,-2.2631,-2.2616,-2.2698,-2.2725,-2.2747,-2.2791,-2.2774,-2.2811,-2.2804,-2.2796,-2.2803,-2.2878,-2.2891,-2.2848,-2.298,-2.2933,-2.2944,-2.2969,-2.2983,-2.2995,-2.2991,-2.2801,0,0,0,0,0,-2.2629,-2.2675,-2.2692,-2.2763,-2.2777,-2.2782,-2.2807,-2.28,-2.2828,-2.2839,-2.2854,-2.2882,-2.2926,-2.2955,-2.2996,-2.3085,-2.3091,-2.3125,-2.3137,-2.3146,-2.3156,-2.3203,-2.3219,-2.3052,-2.3052,-2.3052,0,0,-2.2674,-2.2692,-2.2721,-2.2774,-2.2794,-2.2842,-2.2792,-2.2844,-2.288,-2.2847,-2.2916,-2.2928,-2.2958,-2.3039,-2.3075,-2.3052,-2.3203,-2.3155,-2.3162,-2.3167,-2.3212,-2.3228,-2.3242,-2.3057,-2.3056,-2.3055,0,0,-2.2779,-2.2797,-2.2859,-2.2879,-2.2909,-2.2911,-2.2926,-2.2951,-2.2958,-2.3026,-2.3002,-2.3044,-2.312,-2.3143,-2.3164,-2.3277,-2.3258,-2.3291,-2.3352,-2.3398,-2.3412,-2.3423,-2.3464,-2.3479,-2.33,-2.33,-2.33,0,-2.2831,-2.2902,-2.2892,-2.2947,-2.2971,-2.2942,-2.3005,-2.3025,-2.3068,-2.3085,-2.3058,-2.3153,-2.3171,-2.3256,-2.3284,-2.3302,-2.3319,-2.3288,-2.341,-2.3422,-2.3433,-2.3472,-2.3487,-2.3304,-2.3304,-2.3303,-2.3303,0,-2.2964,-2.3013,-2.3059,-2.31,-2.3129,-2.3188,-2.3187,-2.3218,-2.3208,-2.3214,-2.3284,-2.3305,-2.335,-2.3369,-2.336,-2.3453,-2.3438,-2.3411,-2.3364,-2.3453,-2.3489,-2.3504,-2.331,-2.3308,-2.3307,-2.3306,0,0,-2.3107,-2.314,-2.3158,-2.3176,-2.3206,-2.3244,-2.3301,-2.3344,-2.3371,-2.34,-2.3448,-2.3512,-2.3487,-2.3512,-2.3505,-2.3546,-2.3634,-2.3514,-2.3514,-2.3536,-2.3739,-2.376,-2.3777,-2.3621,-2.3624,-2.3626,-2.3736,0,-2.3214,-2.3313,-2.3306,-2.3399,-2.3444,-2.3417,-2.3466,-2.3491,-2.3497,-2.3537,-2.3543,-2.3589,-2.3552,-2.3567,-2.3606,-2.3615,-2.3675,-2.3607,-2.3666,-2.3669,-2.3661,-2.3796,-2.3818,-2.3922,-2.375,-2.3753,-2.3755,0,-2.3354,-2.3388,-2.3485,-2.3508,-2.3527,-2.3572,-2.361,-2.3648,-2.3675,-2.3677,-2.3703,-2.369,-2.3747,-2.3698,-2.3777,-2.3731,-2.3754,-2.3763,-2.3766,-2.3773,-2.3718,-2.3807,-2.3954,-2.397,-2.3777,-2.3775,-2.3774,0,-2.3449,-2.3519,-2.3586,-2.3602,-2.363,-2.3662,-2.3676,-2.37,-2.3726,-2.376,-2.3777,-2.3817,-2.3839,-2.3871,-2.3869,-2.3833,-2.3949,-2.39,-2.3953,-2.3953,-2.398,-2.3979,-2.4134,-2.3994,-2.3993,-2.3993,-2.3993,0,-2.3571,-2.3632,-2.3629,-2.367,-2.3738,-2.3729,-2.3796,-2.3806,-2.3827,-2.387,-2.3849,-2.389,-2.3884,-2.3925,-2.3923,-2.3989,-2.4,-2.4003,-2.4002,-2.4006,-2.4005,-2.4022,-2.4015,-2.3997,-2.3996,-2.3995,-2.3995,0,-2.3689,-2.3689,-2.3761,-2.3781,-2.3788,-2.3837,-2.3855,-2.3894,-2.3898,-2.3953,-2.3965,-2.3972,-2.4019,-2.4019,-2.4074,-2.4072,-2.4154,-2.4144,-2.4145,-2.4143,-2.4197,-2.4192,-2.437,-2.4393,-2.4236,-2.4237,-2.4239,0,-2.3767,-2.3813,-2.3839,-2.3866,-2.3881,-2.3925,-2.3951,-2.3944,-2.3972,-2.4005,-2.4041,-2.4086,-2.4122,-2.4199,-2.4209,-2.425,-2.4242,-2.4301,-2.4249,-2.4251,-2.4244,-2.4242,-2.4247,-2.4312,-2.4314,-2.4316,-2.4317,0,-2.3907,-2.3904,-2.3943,-2.3981,-2.4013,-2.4044,-2.4071,-2.4095,-2.409,-2.4123,-2.4171,-2.4199,-2.4254,-2.4299,-2.4339,-2.4353,-2.4335,-2.4333,-2.4348,-2.4352,-2.4351,-2.4353,-2.4174,-2.4329,-2.4328,-2.4327,-2.4327,-2.4326,-2.4008,-2.4047,-2.4071,-2.4115,-2.4135,-2.4161,-2.4199,-2.4207,-2.4247,-2.429,-2.4283,-2.4337,-2.4362,-2.4413,-2.4431,-2.4473,-2.4452,-2.4473,-2.4479,-2.4485,-2.4491,-2.4343,-2.448,-2.448,-2.4479,-2.4479,-2.4479,0,-2.4147,-2.416,-2.42,-2.424,-2.4274,-2.4252,-2.4281,-2.4312,-2.4359,-2.4383,-2.4419,-2.4474,-2.4517,-2.453,-2.4572,-2.4603,-2.4596,-2.4615,-2.4613,-2.4617,-2.4506,-2.449,-2.462,-2.462,-2.462,-2.462,-2.462,-2.462,-2.4223,-2.4289,-2.4289,-2.4365,-2.4378,-2.443,-2.4449,-2.4473,-2.4492,-2.4554,-2.459,-2.4598,-2.4618,-2.4661,-2.47,-2.4702,-2.4719,-2.4742,-2.4741,-2.4639,-2.4624,-2.4611,-2.4595,-2.4746,-2.4746,-2.4848,-2.4849,-2.485]},{"header":{"parameterUnit":"m.s-1","parameterCategory":1,"la1":30.2991,"la2":30.254,"lo1":-89.0895,"lo2":-89.0444,"dy":0.0017,"dx":0.0017,"nx":28,"ny":28,"refTime":"2024-03-06T09:00:00:Z","depth":0,"parameterNumber":3,"parameterNumberName":"V-component_of_WINDS"},"data":[0,0,0,0,0,0,0,0,0,0,0,0,0,0,0,0,0,0,0,0,0,0,0,0,0,0,0,0,0,0,0,0,0,0,0,0,0,0,0,0,0,0,0,0,0,0,0,0,0,0,0,0,0,0,0,0,0,0,-2.374,-2.374,0,-2.3768,-2.3769,-2.3769,-2.3748,-2.3747,-2.3746,-2.3745,-2.3772,-2.3773,-2.3775,0,0,0,0,0,0,0,0,0,0,0,0,0,-2.3662,-2.3664,-2.3739,-2.374,-2.374,-2.3768,-2.3769,-2.3769,-2.3748,-2.3747,-2.3746,-2.3745,-2.3771,-2.3773,-2.3775,0,0,0,0,0,0,0,0,0,0,0,0,0,-2.3694,-2.3664,-2.3739,-2.3733,-2.3733,-2.3768,-2.3769,-2.3769,-2.3748,-2.3747,-2.3746,-2.3744,-2.3771,-2.3773,-2.3775,-2.3817,0,0,-2.3782,-2.3783,0,0,0,0,0,0,0,0,-2.3692,-2.3697,-2.3734,-2.3734,-2.3733,-2.3753,-2.3751,-2.3785,-2.3749,-2.3742,-2.3745,-2.3744,-2.3766,-2.3769,-2.3777,-2.3819,-2.382,-2.3783,-2.3784,-2.3785,-2.3786,0,0,0,0,0,0,0,-2.369,-2.3695,-2.3751,-2.3734,-2.3734,-2.3728,-2.3731,-2.3758,-2.3762,-2.3743,-2.3741,-2.3745,-2.3766,-2.3775,-2.3778,-2.382,-2.3782,-2.3785,-2.3786,-2.3787,-2.3896,-2.3898,0,0,0,0,0,0,-2.3689,-2.3694,-2.375,-2.3752,-2.3709,-2.373,-2.3734,-2.3748,-2.3761,-2.3762,-2.3746,-2.3744,-2.3772,-2.3775,-2.3779,-2.3828,-2.3785,-2.3787,-2.3788,-2.3895,-2.3897,-2.3898,0,0,0,0,0,0,-2.3687,-2.3694,-2.3749,-2.3722,-2.3729,-2.3733,-2.375,-2.375,-2.3759,-2.3764,-2.3764,-2.3755,-2.3771,-2.3775,-2.3808,-2.3829,-2.3788,-2.379,-2.3893,-2.3895,-2.3897,-2.3929,0,0,0,0,0,0,-2.3685,-2.3694,-2.3711,-2.3723,-2.373,-2.3779,-2.3751,-2.3751,-2.3763,-2.376,-2.3772,-2.3773,-2.377,-2.3805,-2.381,-2.3832,-2.3792,-2.3891,-2.3894,-2.3897,-2.3926,-2.3932,-2.3937,0,0,0,0,0,-2.3683,-2.3718,-2.3712,-2.3718,-2.3752,-2.378,-2.3784,-2.3781,-2.3765,-2.3781,-2.3785,-2.3773,-2.3826,-2.3808,-2.3814,-2.3837,-2.389,-2.3893,-2.3897,-2.3923,-2.393,-2.3937,0,0,0,0,0,0,-2.3706,-2.3719,-2.3713,-2.3753,-2.3766,-2.3776,-2.3797,-2.3789,-2.3805,-2.3802,-2.3796,-2.3799,-2.3833,-2.3838,-2.3818,-2.3878,-2.3855,-2.386,-2.3873,-2.388,-2.3886,-2.3883,-2.3794,0,0,0,0,0,-2.3717,-2.374,-2.3749,-2.3784,-2.379,-2.3793,-2.3805,-2.3801,-2.3814,-2.3819,-2.3824,-2.3836,-2.3855,-2.3868,-2.3886,-2.3926,-2.3928,-2.3945,-2.395,-2.3955,-2.3959,-2.398,-2.3987,-2.3909,-2.3909,-2.3909,0,0,-2.3737,-2.3747,-2.3762,-2.3789,-2.3798,-2.3821,-2.3797,-2.3822,-2.3839,-2.3822,-2.3853,-2.3858,-2.387,-2.3907,-2.3923,-2.3912,-2.3981,-2.3959,-2.3963,-2.3964,-2.3984,-2.3991,-2.3998,-2.3912,-2.3911,-2.3911,0,0,-2.3787,-2.3797,-2.3827,-2.3837,-2.3852,-2.3853,-2.3861,-2.3873,-2.3875,-2.3907,-2.3895,-2.3914,-2.3947,-2.3956,-2.3965,-2.4019,-2.4008,-2.4024,-2.4053,-2.4074,-2.408,-2.4085,-2.4103,-2.411,-2.4029,-2.4029,-2.4029,0,-2.3811,-2.3846,-2.3843,-2.3869,-2.3881,-2.3868,-2.3897,-2.3907,-2.3927,-2.3934,-2.3922,-2.3964,-2.3971,-2.4009,-2.4022,-2.403,-2.4037,-2.4023,-2.4079,-2.4085,-2.409,-2.4107,-2.4114,-2.4031,-2.403,-2.403,-2.403,0,-2.3874,-2.3898,-2.392,-2.3941,-2.3955,-2.3982,-2.3983,-2.3997,-2.3992,-2.3995,-2.4026,-2.4035,-2.4054,-2.4063,-2.4059,-2.4101,-2.4093,-2.408,-2.4057,-2.4099,-2.4115,-2.4122,-2.4033,-2.4033,-2.4032,-2.4032,0,0,-2.3939,-2.3958,-2.3966,-2.3975,-2.399,-2.4008,-2.4035,-2.4055,-2.4067,-2.4081,-2.4102,-2.4131,-2.4119,-2.413,-2.4126,-2.4144,-2.4184,-2.4128,-2.4128,-2.4138,-2.4231,-2.424,-2.4248,-2.4178,-2.4179,-2.418,-2.4229,0,-2.3989,-2.4036,-2.4035,-2.4079,-2.41,-2.4088,-2.4111,-2.4123,-2.4126,-2.4144,-2.4146,-2.4166,-2.4149,-2.4155,-2.4173,-2.4176,-2.4203,-2.4172,-2.4196,-2.4197,-2.4193,-2.4256,-2.4266,-2.4313,-2.4236,-2.4237,-2.4237,0,-2.4053,-2.407,-2.4117,-2.4129,-2.4138,-2.4159,-2.4177,-2.4195,-2.4207,-2.4208,-2.422,-2.4213,-2.4238,-2.4215,-2.425,-2.4229,-2.4239,-2.4242,-2.4244,-2.4245,-2.422,-2.4259,-2.4327,-2.4334,-2.4247,-2.4247,-2.4246,0,-2.4095,-2.413,-2.4162,-2.417,-2.4185,-2.42,-2.4207,-2.4218,-2.423,-2.4245,-2.4253,-2.4271,-2.428,-2.4294,-2.4291,-2.4275,-2.4327,-2.4304,-2.4327,-2.4327,-2.4338,-2.4337,-2.4408,-2.4345,-2.4345,-2.4345,-2.4345,0,-2.4151,-2.418,-2.4181,-2.4201,-2.4233,-2.423,-2.4261,-2.4266,-2.4276,-2.4295,-2.4286,-2.4304,-2.43,-2.4318,-2.4316,-2.4345,-2.4349,-2.435,-2.4349,-2.4351,-2.435,-2.4356,-2.4353,-2.4347,-2.4346,-2.4346,-2.4346,0,-2.4203,-2.4206,-2.424,-2.4252,-2.4255,-2.4278,-2.4287,-2.4305,-2.4307,-2.4332,-2.4338,-2.4341,-2.4361,-2.4361,-2.4384,-2.4383,-2.4418,-2.4413,-2.4414,-2.4413,-2.4436,-2.4434,-2.4513,-2.4523,-2.4454,-2.4455,-2.4455,0,-2.4238,-2.426,-2.4274,-2.4288,-2.4296,-2.4316,-2.4329,-2.4327,-2.434,-2.4356,-2.4372,-2.4392,-2.4407,-2.4441,-2.4444,-2.4462,-2.4457,-2.4484,-2.446,-2.446,-2.4457,-2.4455,-2.4457,-2.4488,-2.4489,-2.449,-2.449,0,-2.43,-2.43,-2.4319,-2.4339,-2.4354,-2.4369,-2.4383,-2.4393,-2.4393,-2.4408,-2.4429,-2.4442,-2.4466,-2.4485,-2.4502,-2.4508,-2.4499,-2.4498,-2.4504,-2.4506,-2.4505,-2.4505,-2.4426,-2.4496,-2.4495,-2.4495,-2.4495,-2.4494,-2.4344,-2.4363,-2.4376,-2.4397,-2.4408,-2.4421,-2.4438,-2.4443,-2.4461,-2.4481,-2.4479,-2.4503,-2.4514,-2.4535,-2.4543,-2.456,-2.4551,-2.456,-2.4562,-2.4564,-2.4567,-2.4503,-2.4564,-2.4563,-2.4563,-2.4563,-2.4563,0,-2.4405,-2.4413,-2.4432,-2.4452,-2.4469,-2.446,-2.4475,-2.4489,-2.451,-2.4522,-2.4538,-2.4563,-2.4581,-2.4587,-2.4605,-2.4618,-2.4614,-2.4623,-2.4621,-2.4623,-2.4575,-2.4567,-2.4625,-2.4625,-2.4625,-2.4625,-2.4625,-2.4625,-2.4438,-2.4469,-2.4471,-2.4507,-2.4514,-2.4539,-2.4548,-2.4559,-2.4569,-2.4597,-2.4613,-2.4616,-2.4625,-2.4644,-2.466,-2.4661,-2.4668,-2.4678,-2.4677,-2.4632,-2.4626,-2.462,-2.4613,-2.468,-2.468,-2.4724,-2.4724,-2.4724]}]]